Regional Weather Roundup
Issued by NWS Raleigh/Durham, NC

Home | Current Version | Previous Version | Text Only | Print | Product List | Glossary On
Versions: 1 2 3 4 5 6 7 8 9 10 11 12 13 14 15 16 17 18 19 20 21 22 23 24 25 26 27 28
000
ASUS42 KRAH 230510
RWRRAH
NORTH CAROLINA WEATHER ROUNDUP
NATIONAL WEATHER SERVICE RALEIGH NC
100 AM EDT SUN JUL 23 2017

NOTE: "FAIR" INDICATES FEW OR NO CLOUDS BELOW 12,000 FEET WITH NO
SIGNIFICANT WEATHER AND/OR OBSTRUCTIONS TO VISIBILITY.

NCZ001-053-055-056-065-067-230600-
WESTERN NORTH CAROLINA

CITY           SKY/WX    TMP DP  RH WIND       PRES   REMARKS
ASHEVILLE      CLEAR     73  71  93 CALM      30.03S
JEFFERSON      PTCLDY    77  67  70 W8        30.06F
MORGANTON      CLEAR     70  70 100 CALM      30.00S
HICKORY        CLEAR     76  71  85 CALM      29.94S
RUTHERFORDTON  CLEAR     79  75  87 CALM      29.95S
MOUNT AIRY     CLEAR     75  71  86 CALM      29.94S
BOONE          PTCLDY    73  65  74 W5        30.08F
$$

NCZ021-022-025-041-071-084-088-230600-
CENTRAL NORTH CAROLINA

CITY           SKY/WX    TMP DP  RH WIND       PRES   REMARKS
CHARLOTTE      PTCLDY    83  72  69 SW7       29.94R
GREENSBORO     PTCLDY    80  75  84 SW7       29.90F
WINSTON-SALEM  CLEAR     79  71  76 SW5       29.92F
RALEIGH-DURHAM CLOUDY    83  73  72 SW10      29.89F
FORT BRAGG     CLEAR     83  72  69 SW7       29.90
FAYETTEVILLE   CLEAR     86  75  69 SW9       29.90S HX  95
BURLINGTON     CLEAR     81  73  76 SW5       29.88F
LAURINBURG     CLEAR     80  76  87 SW8       29.92S
$$

NCZ011-015-027-028-043-044-047-080-103-230600-
NORTHEASTERN NORTH CAROLINA

CITY           SKY/WX    TMP DP  RH WIND       PRES   REMARKS
ROCKY MT-WILSO CLEAR     82  76  81 S9        29.88S
GREENVILLE     CLEAR     81  73  78 SW7       29.91S
WASHINGTON     CLEAR     79  73  81 SW10G17   29.89S
ELIZABETH CITY CLEAR     81  76  84 SW12      29.86R
MANTEO         NOT AVBL
CAPE HATTERAS  CLEAR     78  74  87 SW10      29.91S
$$

NCZ078-087-090-091-093-098-101-230600-
SOUTHEASTERN NORTH CAROLINA

CITY           SKY/WX    TMP DP  RH WIND       PRES   REMARKS
LUMBERTON      CLEAR     80  76  87 SW9       29.91S
GOLDSBORO      NOT AVBL
KINSTON        CLEAR     80  74  81 S9        29.90F
KENANSVILLE    CLEAR     79  75  89 CALM      29.91S
NEW BERN       CLEAR     78  75  90 SW8       29.91F
CHERRY POINT   CLEAR     81  76  84 SW13      29.91F
BEAUFORT       PTCLDY    82  80  94 SW15      29.92S
JACKSONVILLE   CLEAR     78  76  93 S9        29.90F
WILMINGTON     CLEAR     79  75  87 SW9       29.93S
$$





USA.gov is the U.S. government's official web portal to all federal, state and local government web resources and services.